Location: ??????
(55.4348°N, 39.2112°E)
Time: 12:44:02
(UTC+00:00)

Sich 1 - Pass Details

Date: 14 April 2024
Orbit: 585 x 612 km, 82.5° (Epoch: 24 May)

Event Time Altitude Azimuth Distance (km) Brightness Sun altitude
Rises 00:15:58 0° 347° (NNW) 2,828 6.9 -15.8°
Reaches altitude 10° 00:18:11 10° 345° (NNW) 1,922 6.0 -15.6°
Maximum altitude 00:22:25 75° 262° (W) 613 2.9 -15.1°
Enters shadow 00:26:15 12° 177° (S) 1,760 5.0 -14.8°
